KB2UHF-8 Weather Reports


time (UTC)temp
C
wind
direction
speed
KPH
gust
KPH
rain 1hr
cm
rain 24hr
cm
rain mn
cm
humidity
%
barometer
mb
20260506033516 5 293 1.6 3.2 0.00 0.00 0.00 53 1011.1
20260506032516 5 0.0 3.2 0.00 0.00 0.00 52 1011.2
20260506031516 5 0.0 3.2 0.00 0.00 0.00 52 1011.0
20260506030516 6 293 1.6 3.2 0.00 0.00 0.00 51 1011.2
20260506025516 6 293 1.6 3.2 0.00 0.00 0.00 49 1011.1
20260506024536 6 293 1.6 4.8 0.00 0.00 0.00 48 1011.0
20260506023516 6 315 1.6 4.8 0.00 0.00 0.00 48 1011.0
20260506022516 6 315 1.6 8.0 0.00 0.00 0.00 47 1010.7
20260506021516 7 315 3.2 8.0 0.00 0.00 0.00 47 1010.6
20260506020536 7 315 1.6 4.8 0.00 0.00 0.00 45 1010.4
20260506015516 7 315 3.2 6.4 0.00 0.00 0.00 45 1010.3
20260506014516 7 315 3.2 6.4 0.00 0.00 0.00 45 1010.1
20260506013536 7 315 3.2 8.0 0.00 0.00 0.00 45 1009.9
20260506012516 7 315 3.2 4.8 0.00 0.00 0.00 43 1009.9
20260506011516 7 315 4.8 8.0 0.00 0.00 0.00 44 1009.9
20260506010516 7 315 3.2 8.0 0.00 0.00 0.00 44 1009.5
20260506005516 7 315 4.8 8.0 0.00 0.00 0.00 44 1009.6
20260506004556 8 315 6.4 14.5 0.00 0.00 0.00 43 1009.5
20260506003516 8 315 6.4 14.5 0.00 0.00 0.00 42 1009.4
20260506002516 8 315 9.7 19.3 0.00 0.00 0.00 42 1009.5
20260506001515 8 293 4.8 9.7 0.00 0.00 0.00 44 1009.4
20260506000516 9 315 8.0 20.9 0.00 0.00 0.00 42 1009.3
20260505235516 9 293 11.3 22.5 0.00 0.00 0.00 41 1009.2
20260505234516 9 315 9.7 25.7 0.00 0.00 0.00 39 1009.3
20260505233516 9 315 12.9 24.1 0.00 0.00 0.00 41 1009.2
20260505232556 10 293 9.7 20.9 0.00 0.00 0.00 39 1009.1
20260505231515 10 293 9.7 20.9 0.00 0.00 0.00 39 1009.1
20260505230516 9 293 16.1 32.2 0.00 0.00 0.00 38 1009.2
20260505225516 10 270 14.5 24.1 0.00 0.00 0.00 38 1009.3
20260505224516 10 270 14.5 25.7 0.00 0.00 0.00 38 1009.3
20260505223515 10 315 12.9 27.4 0.00 0.00 0.00 39 1009.3
20260505222515 10 293 12.9 25.7 0.00 0.00 0.00 37 1009.0
20260505221515 10 293 9.7 19.3 0.00 0.00 0.00 38 1009.2
20260505220515 10 293 14.5 24.1 0.00 0.00 0.00 36 1009.0
20260505215536 10 270 11.3 24.1 0.00 0.00 0.00 38 1009.1
20260505214515 10 315 14.5 27.4 0.00 0.00 0.00 39 1009.0
20260505213516 10 270 14.5 30.6 0.00 0.00 0.00 40 1009.1
20260505212516 10 270 14.5 27.4 0.00 0.00 0.00 37 1009.1
20260505211535 11 270 16.1 32.2 0.00 0.00 0.00 36 1009.2
20260505210515 11 270 12.9 25.7 0.00 0.00 0.00 39 1009.1
20260505205515 10 270 9.7 20.9 0.00 0.00 0.00 38 1009.1
20260505204515 10 293 14.5 25.7 0.00 0.00 0.00 38 1009.3
20260505203515 10 293 12.9 25.7 0.00 0.00 0.00 40 1009.5
20260505202516 10 293 16.1 27.4 0.00 0.00 0.00 39 1009.4
20260505201515 10 293 17.7 30.6 0.00 0.00 0.00 38 1009.3
20260505200515 10 293 16.1 29.0 0.00 0.00 0.00 39 1009.5
20260505195537 10 270 14.5 29.0 0.00 0.00 0.00 40 1009.5
20260505194515 10 293 12.9 24.1 0.00 0.00 0.00 40 1009.5
20260505193515 11 270 17.7 41.8 0.00 0.00 0.00 37 1009.7
20260505192516 10 270 14.5 25.7 0.00 0.00 0.00 38 1009.4
20260505191515 9 270 12.9 25.7 0.00 0.00 0.00 41 1009.5
20260505190515 10 248 12.9 27.4 0.00 0.00 0.00 37 1009.5
20260505185537 10 270 16.1 30.6 0.00 0.00 0.00 38 1009.6
20260505184515 10 270 12.9 22.5 0.00 0.00 0.00 35 1009.6
20260505183515 10 270 17.7 33.8 0.00 0.00 0.00 34 1009.5
20260505182515 10 293 14.5 27.4 0.00 0.00 0.00 37 1009.4
20260505181515 10 293 17.7 32.2 0.00 0.00 0.00 35 1009.2
20260505180515 11 293 16.1 35.4 0.00 0.00 0.00 36 1009.3
20260505175517 10 293 14.5 30.6 0.00 0.00 0.00 37 1009.1
20260505174517 10 315 14.5 24.1 0.00 0.00 0.00 38 1009.2
20260505173517 10 270 14.5 24.1 0.00 0.00 0.00 36 1009.3
20260505172517 10 270 19.3 32.2 0.00 0.00 0.00 38 1009.2
20260505171517 9 270 12.9 32.2 0.00 0.00 0.00 40 1009.3
20260505170517 9 248 16.1 29.0 0.00 0.00 0.00 38 1009.3
20260505165517 9 270 12.9 30.6 0.00 0.00 0.00 38 1009.2
20260505164517 8 248 14.5 25.7 0.00 0.00 0.00 38 1009.4
20260505163517 9 270 12.9 30.6 0.00 0.00 0.00 40 1009.5
20260505162517 9 315 11.3 22.5 0.00 0.00 0.00 40 1009.3
20260505161517 9 315 14.5 25.7 0.00 0.00 0.00 40 1009.3
20260505160517 8 270 12.9 27.4 0.00 0.00 0.00 37 1009.1
20260505152537 9 270 9.7 22.5 0.00 0.00 0.00 40 1009.0
20260505151517 8 315 9.7 17.7 0.00 0.00 0.00 41 1008.9
20260505150517 8 338 11.3 27.4 0.00 0.00 0.00 43 1008.9
20260505140517 7 293 9.7 17.7 0.00 0.00 0.00 49 1008.9
20260505124517 6 293 8.0 14.5 0.00 0.00 0.00 58 1008.6
20260505123517 5 270 8.0 14.5 0.00 0.00 0.00 58 1008.5
20260505122517 5 270 8.0 16.1 0.00 0.00 0.00 59 1008.5
20260505121537 5 270 6.4 14.5 0.00 0.00 0.00 61 1008.2
20260505120516 5 270 6.4 12.9 0.00 0.00 0.00 60 1008.1
20260505115517 4 270 6.4 14.5 0.00 0.00 0.00 61 1007.7
20260505114517 4 270 4.8 11.3 0.00 0.00 0.00 61 1007.4
20260505113517 3 293 4.8 6.4 0.00 0.00 0.00 63 1007.0
20260505112517 3 293 3.2 4.8 0.00 0.00 0.00 62 1006.7
20260505111517 3 293 4.8 9.7 0.00 0.00 0.00 63 1006.7
20260505110517 3 293 6.4 12.9 0.00 0.00 0.00 62 1006.8
20260505101536 4 270 3.2 6.4 0.00 0.00 0.00 61 1006.8
20260505100536 5 248 4.8 11.3 0.00 0.00 0.00 59 1006.8
20260505095517 5 248 3.2 9.7 0.00 0.00 0.00 59 1006.8
20260505094516 5 270 3.2 6.4 0.00 0.00 0.00 58 1006.7
20260505093536 5 248 4.8 9.7 0.00 0.00 0.00 58 1006.7
20260505092516 5 270 4.8 12.9 0.00 0.00 0.00 57 1006.6
20260505091516 5 270 4.8 11.3 0.00 0.00 0.00 57 1006.4
20260505090516 5 270 4.8 11.3 0.00 0.00 0.00 57 1006.2
20260505085516 5 270 4.8 12.9 0.00 0.00 0.00 60 1006.1
20260505084557 6 270 6.4 12.9 0.00 0.00 0.00 54 1006.0
20260505083516 5 248 4.8 9.7 0.00 0.00 0.00 54 1005.9
20260505082516 5 270 3.2 6.4 0.00 0.00 0.00 56 1005.9
20260505081516 6 270 4.8 6.4 0.00 0.00 0.00 57 1005.7
20260505080516 6 293 4.8 9.7 0.00 0.00 0.00 53 1005.3
20260505075516 6 293 4.8 8.0 0.00 0.00 0.00 52 1005.3
20260505074516 6 315 8.0 14.5 0.00 0.00 0.00 51 1005.1
20260505073516 6 315 6.4 14.5 0.00 0.00 0.00 50 1005.1
20260505072516 6 293 6.4 14.5 0.00 0.00 0.00 50 1005.2
20260505071516 7 315 6.4 12.9 0.00 0.00 0.00 49 1005.4
20260505070536 7 315 11.3 24.1 0.00 0.00 0.00 48 1005.4
20260505065516 7 315 11.3 20.9 0.00 0.00 0.00 49 1005.4
20260505064536 7 315 9.7 19.3 0.00 0.00 0.00 49 1005.6
20260505063516 7 293 9.7 17.7 0.00 0.00 0.00 49 1005.7
20260505062516 7 315 9.7 20.9 0.00 0.00 0.00 49 1005.6
20260505061536 7 315 12.9 25.7 0.00 0.00 0.00 49 1005.6
20260505060536 7 315 9.7 20.9 0.00 0.00 0.00 50 1005.6
20260505055516 8 315 12.9 25.7 0.00 0.00 0.00 49 1005.6
20260505054516 8 338 9.7 17.7 0.00 0.00 0.00 50 1005.5
20260505053536 8 315 11.3 22.5 0.00 0.00 0.00 49 1005.3
20260505052516 9 315 12.9 27.4 0.00 0.00 0.00 48 1005.2
20260505051516 9 293 12.9 27.4 0.00 0.00 0.00 48 1005.2
20260505050516 9 338 16.1 33.8 0.00 0.00 0.00 48 1005.1
20260505041517 10 315 12.9 30.6 0.00 0.00 0.00 49 1004.3
20260505040517 10 315 19.3 29.0 0.00 0.00 0.00 48 1004.1
20260505035537 11 293 9.7 19.3 0.00 0.00 0.00 48 1004.0
20260505034517 11 293 9.7 19.3 0.00 0.00 0.00 47 1003.9